Location: Akho
(42.3047°N, 44.1844°E)
Time: 07:43:01
(UTC+00:00)

Cosmos 1340 - Pass Details

Date: 07 June 2020
Orbit: 501 x 506 km, 81.2° (Epoch: 05 July)

Event Time Altitude Azimuth Distance (km) Brightness Sun altitude
Exits shadow 00:39:27 - 180° (S) 2,637 5.9 -7.9°
Rises 00:39:34 0° 180° (S) 2,589 5.9 -7.9°
Reaches altitude 10° 00:41:42 10° 176° (S) 1,709 5.0 -7.6°
Maximum altitude 00:45:23 59° 97° (E) 589 3.2 -7.0°
Drops below altitude 10° 00:49:06 10° 18° (NNE) 1,721 6.3 -6.5°
Sets 00:51:15 0° 14° (NNE) 2,609 7.2 -6.2°
